[[{"header":{"parameterUnit":"m.s-1","parameterCategory":2,"la1":30.2991,"la2":30.254,"lo1":-89.0895,"lo2":-89.0444,"dy":0.0017,"dx":0.0017,"nx":28,"ny":28,"refTime":"2025-03-11T03:00:00:Z","depth":"0","parameterNumber":2,"parameterNumberName":"U-component_of_CURRENTS"},"data":[0,0,0,0,0,0,0,0,0,0,0,0,0,0,0,0,0,0,0,0,0,0,0,0,0,0,0,0,0,0,0,0,0,0,0,0,0,0,0,0,0,0,0,0,0,0,0,0,0,0,0,0,0,0,0,0,0,0,0.2987,0.2987,0,0.3047,0.3047,0.3048,0.3108,0.3109,0.311,0.3111,0.3099,0.3098,0.3097,0,0,0,0,0,0,0,0,0,0,0,0,0,0.295,0.295,0.2986,0.2988,0.2989,0.3047,0.3047,0.3048,0.3108,0.3109,0.311,0.3111,0.31,0.3098,0.3096,0,0,0,0,0,0,0,0,0,0,0,0,0,0.298,0.295,0.2986,0.3028,0.3033,0.3047,0.3047,0.3048,0.3107,0.3109,0.3111,0.3112,0.31,0.3098,0.3096,0.305,0,0,0.309,0.3089,0,0,0,0,0,0,0,0,0.2978,0.2981,0.3021,0.3025,0.303,0.3075,0.303,0.3046,0.3107,0.3075,0.3111,0.3113,0.3085,0.3085,0.3088,0.305,0.3049,0.309,0.3089,0.3088,0.3087,0,0,0,0,0,0,0,0.2976,0.2979,0.3007,0.3022,0.3028,0.3053,0.3059,0.3034,0.3066,0.3078,0.3083,0.3095,0.3087,0.309,0.3088,0.3049,0.309,0.3088,0.3087,0.3086,0.3,0.2999,0,0,0,0,0,0,0.2972,0.2976,0.3005,0.3009,0.3012,0.3053,0.3059,0.3056,0.3068,0.3073,0.3094,0.3098,0.3093,0.3091,0.3088,0.3033,0.3088,0.3086,0.3085,0.3001,0.3,0.2998,0,0,0,0,0,0,0.2971,0.2973,0.3003,0.2998,0.3004,0.3052,0.3048,0.3056,0.3067,0.3081,0.3085,0.3098,0.3094,0.3091,0.3069,0.3033,0.3085,0.3083,0.3002,0.3,0.2999,0.2923,0,0,0,0,0,0,0.2969,0.2972,0.2967,0.2997,0.3004,0.3009,0.3047,0.3056,0.3073,0.3079,0.3085,0.3086,0.3095,0.3072,0.3067,0.3031,0.3082,0.3003,0.3001,0.2999,0.2927,0.2919,0.2912,0,0,0,0,0,0.2967,0.2952,0.2966,0.297,0.2996,0.3009,0.3013,0.3052,0.3072,0.3068,0.3075,0.3086,0.3056,0.3069,0.3064,0.3026,0.3004,0.3002,0.3,0.293,0.2921,0.2912,0,0,0,0,0,0,0.2924,0.2958,0.2974,0.2967,0.2987,0.302,0.3021,0.3045,0.3048,0.3052,0.3067,0.3066,0.3038,0.3042,0.3056,0.2998,0.3033,0.303,0.2982,0.2973,0.2966,0.2986,0.308,0,0,0,0,0,0.2914,0.2917,0.2947,0.2942,0.2948,0.2982,0.2992,0.3016,0.3028,0.3033,0.3038,0.3036,0.302,0.3007,0.3002,0.2956,0.302,0.2932,0.2925,0.2919,0.2933,0.3013,0.3015,0.299,0.299,0.299,0,0,0.29,0.2915,0.292,0.2934,0.2951,0.2942,0.2991,0.3001,0.2986,0.3025,0.3,0.3012,0.3007,0.297,0.2956,0.2967,0.2955,0.2915,0.291,0.2928,0.3011,0.3014,0.3016,0.2989,0.2989,0.2989,0,0,0.287,0.288,0.2876,0.2881,0.2904,0.2915,0.2916,0.2942,0.2948,0.2931,0.2954,0.2949,0.2924,0.2916,0.2906,0.2851,0.2921,0.2844,0.2809,0.2885,0.2889,0.2893,0.2964,0.2975,0.283,0.283,0.283,0,0.2862,0.2844,0.2874,0.2861,0.2864,0.2896,0.2883,0.2876,0.2893,0.2908,0.2916,0.2922,0.2898,0.2871,0.2841,0.2833,0.2902,0.2838,0.2878,0.2884,0.2889,0.2961,0.2974,0.2826,0.2827,0.2827,0.2828,0,0.2826,0.2808,0.2798,0.2792,0.2796,0.2785,0.279,0.2794,0.2809,0.2829,0.2835,0.2825,0.2851,0.2812,0.2796,0.2806,0.2851,0.2869,0.2905,0.2888,0.2964,0.2979,0.2821,0.2822,0.2823,0.2824,0,0,0.2834,0.2787,0.2785,0.2765,0.276,0.2759,0.2735,0.2746,0.2763,0.2766,0.2813,0.2741,0.2794,0.2787,0.2779,0.2799,0.2856,0.2838,0.2844,0.2916,0.3045,0.2985,0.2997,0.29,0.2903,0.2904,0.3078,0,0.2805,0.2748,0.2746,0.2696,0.2669,0.2693,0.2675,0.2692,0.2722,0.277,0.2782,0.2812,0.2764,0.2793,0.2805,0.2871,0.2896,0.2808,0.3046,0.3052,0.3008,0.3012,0.2824,0.2956,0.3094,0.3096,0.3098,0,0.2786,0.2744,0.2682,0.2653,0.2651,0.263,0.2659,0.2652,0.272,0.2762,0.2819,0.287,0.2899,0.2875,0.2977,0.2939,0.298,0.3012,0.3021,0.3009,0.3021,0.2998,0.2979,0.2896,0.3123,0.3121,0.3119,0,0.2772,0.2715,0.2658,0.264,0.2604,0.2607,0.2612,0.266,0.27,0.2788,0.288,0.2928,0.3006,0.3062,0.3111,0.3077,0.3252,0.3228,0.3209,0.3207,0.3114,0.3098,0.3048,0.3304,0.3304,0.3303,0.3303,0,0.2746,0.2707,0.2642,0.2603,0.2588,0.2582,0.2615,0.2642,0.2734,0.2821,0.2887,0.2988,0.3064,0.3173,0.3185,0.3255,0.3327,0.3217,0.325,0.3077,0.3057,0.3034,0.3002,0.331,0.3309,0.3307,0.3306,0,0.2747,0.2688,0.2629,0.2574,0.2572,0.2569,0.2631,0.2687,0.2755,0.2894,0.2945,0.3088,0.3218,0.3282,0.3397,0.3364,0.3319,0.3419,0.3201,0.3202,0.3062,0.3032,0.2971,0.289,0.3434,0.3434,0.3433,0,0.2737,0.2697,0.2624,0.2623,0.26,0.2609,0.2656,0.27,0.2779,0.2951,0.3042,0.3201,0.3293,0.3434,0.3396,0.3428,0.333,0.3284,0.3147,0.3033,0.3027,0.2919,0.2847,0.3002,0.2998,0.2995,0.2992,0,0.2743,0.2713,0.2672,0.2666,0.2682,0.2694,0.2751,0.2802,0.2894,0.2993,0.3129,0.3202,0.3316,0.3251,0.3279,0.3264,0.3096,0.322,0.3164,0.2729,0.255,0.2494,0.2919,0.2964,0.2967,0.2969,0.297,0.2972,0.2777,0.2768,0.2733,0.2724,0.2745,0.2758,0.2749,0.2828,0.2894,0.2951,0.3084,0.3087,0.3092,0.3077,0.3061,0.2894,0.2915,0.2771,0.2766,0.2685,0.2512,0.2867,0.2903,0.2905,0.2907,0.2909,0.291,0,0.2817,0.2809,0.2816,0.2774,0.2777,0.2775,0.2806,0.2763,0.2783,0.2831,0.2856,0.2782,0.2704,0.2692,0.2561,0.2441,0.2325,0.2383,0.2176,0.2146,0.252,0.2403,0.2253,0.2253,0.2253,0.2253,0.2253,0.2254,0.2844,0.284,0.2818,0.279,0.2769,0.2693,0.2663,0.2606,0.2582,0.2458,0.236,0.2341,0.2395,0.2331,0.2172,0.2113,0.1965,0.1851,0.1921,0.2163,0.2197,0.223,0.2111,0.1902,0.1902,0.1409,0.1405,0.1402]},{"header":{"parameterUnit":"m.s-1","parameterCategory":2,"la1":30.2991,"la2":30.254,"lo1":-89.0895,"lo2":-89.0444,"dy":0.0017,"dx":0.0017,"nx":28,"ny":28,"refTime":"2025-03-11T03:00:00:Z","depth":"0","parameterNumber":3,"parameterNumberName":"V-component_of_CURRENTS"},"data":[0,0,0,0,0,0,0,0,0,0,0,0,0,0,0,0,0,0,0,0,0,0,0,0,0,0,0,0,0,0,0,0,0,0,0,0,0,0,0,0,0,0,0,0,0,0,0,0,0,0,0,0,0,0,0,0,0,0,-0.0045,-0.0046,0,-0.0107,-0.0108,-0.0109,-0.0182,-0.0183,-0.0184,-0.0185,-0.0268,-0.027,-0.0271,0,0,0,0,0,0,0,0,0,0,0,0,0,-0.0026,-0.0025,-0.0045,-0.0046,-0.0047,-0.0107,-0.0108,-0.0109,-0.0182,-0.0183,-0.0184,-0.0186,-0.0268,-0.0269,-0.0271,0,0,0,0,0,0,0,0,0,0,0,0,0,-0.0056,-0.0025,-0.0045,-0.0089,-0.0094,-0.0107,-0.0108,-0.0109,-0.0182,-0.0183,-0.0185,-0.0186,-0.0267,-0.0269,-0.0271,-0.0252,0,0,-0.0277,-0.0278,0,0,0,0,0,0,0,0,-0.0054,-0.0057,-0.0082,-0.0086,-0.0091,-0.0138,-0.0132,-0.0158,-0.0181,-0.0149,-0.0185,-0.0187,-0.0225,-0.023,-0.024,-0.0256,-0.026,-0.0277,-0.0278,-0.0279,-0.028,0,0,0,0,0,0,0,-0.0052,-0.0055,-0.0071,-0.0083,-0.0088,-0.0119,-0.0124,-0.0137,-0.0179,-0.0152,-0.0157,-0.0162,-0.0228,-0.0238,-0.0242,-0.0261,-0.0277,-0.0279,-0.028,-0.0281,-0.0266,-0.0264,0,0,0,0,0,0,-0.0039,-0.0053,-0.0069,-0.0073,-0.0075,-0.0117,-0.0124,-0.0122,-0.0179,-0.0188,-0.0161,-0.0165,-0.0234,-0.024,-0.0246,-0.0217,-0.0279,-0.0281,-0.0282,-0.0267,-0.0265,-0.0264,0,0,0,0,0,0,-0.0038,-0.0039,-0.0066,-0.0064,-0.0069,-0.0116,-0.0113,-0.0122,-0.0135,-0.0185,-0.0195,-0.0164,-0.0235,-0.0243,-0.0248,-0.0221,-0.0282,-0.0283,-0.0269,-0.0266,-0.0264,-0.0166,0,0,0,0,0,0,-0.0037,-0.0038,-0.0034,-0.0062,-0.0069,-0.0064,-0.0112,-0.0123,-0.0135,-0.0142,-0.019,-0.02,-0.0237,-0.0245,-0.025,-0.0225,-0.0285,-0.0271,-0.0268,-0.0265,-0.0171,-0.0161,-0.0152,0,0,0,0,0,-0.0036,-0.0015,-0.0033,-0.0035,-0.006,-0.0063,-0.0068,-0.0108,-0.0133,-0.0127,-0.016,-0.0199,-0.0231,-0.0245,-0.0251,-0.0226,-0.0272,-0.0269,-0.0265,-0.0176,-0.0163,-0.0152,0,0,0,0,0,0,-0.0003,-0.0021,-0.0041,-0.0028,-0.0042,-0.0075,-0.0072,-0.0098,-0.0119,-0.0127,-0.0178,-0.0188,-0.0183,-0.0213,-0.0228,-0.0213,-0.0257,-0.0255,-0.0187,-0.0175,-0.0166,-0.0155,-0.0287,0,0,0,0,0,0.0008,0.0017,-0.0007,0.0004,0.0001,-0.0034,-0.0041,-0.0066,-0.0088,-0.01,-0.0133,-0.0161,-0.0171,-0.0181,-0.0199,-0.0187,-0.0207,-0.0175,-0.0165,-0.0157,-0.0151,-0.0152,-0.0142,-0.0252,-0.0252,-0.0252,0,0,0.0021,0.0015,0.0017,0.0012,-0.0004,0.001,-0.0042,-0.0043,-0.0032,-0.0102,-0.0097,-0.0128,-0.016,-0.015,-0.015,-0.0174,-0.0131,-0.0152,-0.0145,-0.0144,-0.0147,-0.0137,-0.0127,-0.025,-0.025,-0.0251,0,0,0.0066,0.0052,0.0076,0.0073,0.0061,0.0044,0.0049,0.0023,0.0009,0.0013,-0.0031,-0.0043,-0.0065,-0.0082,-0.0092,-0.0036,-0.0079,-0.0042,0.0016,0.0016,0.0025,0.0032,0.0039,0.0047,-0.0037,-0.0037,-0.0037,0,0.0078,0.0107,0.0083,0.0109,0.0111,0.0067,0.0094,0.0086,0.006,0.006,0.0028,0.0006,-0.0029,-0.0009,0.0003,-0.0013,-0.002,-0.0027,0.0029,0.0036,0.0042,0.0047,0.0054,-0.0032,-0.0033,-0.0033,-0.0034,0,0.0142,0.0162,0.0181,0.0197,0.02,0.0216,0.0201,0.0202,0.0177,0.0162,0.0167,0.0123,0.0105,0.0099,0.0065,0.0097,0.0077,0.0042,-0.0001,0.0059,0.006,0.0066,-0.0025,-0.0027,-0.0028,-0.0029,0,0,0.0168,0.0214,0.0219,0.0242,0.0245,0.0257,0.0282,0.0291,0.0313,0.0283,0.0313,0.028,0.0241,0.0227,0.0185,0.0182,0.0216,0.0134,0.0131,0.0142,0.0226,0.0216,0.022,0.019,0.0191,0.0192,0.0216,0,0.0218,0.0293,0.0295,0.0356,0.0388,0.0365,0.0397,0.0398,0.0387,0.0408,0.0367,0.0379,0.0296,0.0295,0.0276,0.0234,0.0232,0.0213,0.0165,0.0164,0.0148,0.0226,0.0218,0.0239,0.0221,0.0222,0.0223,0,0.0273,0.0316,0.0389,0.0439,0.045,0.0478,0.0508,0.0533,0.0547,0.0541,0.053,0.0498,0.049,0.0415,0.0365,0.0357,0.0299,0.0261,0.026,0.0218,0.0163,0.0173,0.0249,0.0155,0.023,0.023,0.0229,0,0.0307,0.0377,0.0438,0.0455,0.0507,0.053,0.0553,0.057,0.0608,0.0633,0.0668,0.0626,0.0629,0.0552,0.0452,0.0415,0.0408,0.0343,0.0283,0.0281,0.0247,0.0241,0.0226,0.0316,0.0316,0.0316,0.0316,0,0.0357,0.0405,0.0461,0.0497,0.0567,0.0581,0.0652,0.0665,0.0714,0.0791,0.074,0.0799,0.0663,0.0634,0.0519,0.0432,0.0455,0.0315,0.0294,0.0283,0.028,0.0172,0.0112,0.0317,0.0317,0.0317,0.0317,0,0.0386,0.0425,0.05,0.0566,0.0589,0.0638,0.0719,0.0775,0.0815,0.0919,0.0943,0.094,0.0903,0.0769,0.0662,0.0534,0.0389,0.0404,0.0405,0.0384,0.0215,0.0161,0.0115,0.0069,0.034,0.034,0.034,0,0.0411,0.0454,0.0545,0.0593,0.0625,0.0701,0.076,0.0815,0.0889,0.1022,0.1088,0.1091,0.1116,0.0955,0.0729,0.0547,0.0421,0.0409,0.0323,0.0231,0.0155,0.0107,0.0068,0.0324,0.0324,0.0324,0.0324,0,0.045,0.048,0.0544,0.0642,0.0711,0.0803,0.0897,0.0974,0.1073,0.1186,0.1329,0.1373,0.1221,0.104,0.0772,0.0625,0.034,0.04,0.0305,0.0152,0.01,0.0038,0.0286,0.0323,0.0323,0.0323,0.0323,0.0323,0.0472,0.0519,0.0601,0.0693,0.0779,0.0896,0.0989,0.1114,0.1267,0.1442,0.1481,0.1567,0.1299,0.0935,0.0728,0.0342,0.0337,0.021,0.0157,0.0123,0.0061,0.0316,0.0323,0.0324,0.0324,0.0324,0.0324,0,0.0503,0.0562,0.0647,0.0765,0.0865,0.0908,0.1077,0.1192,0.1393,0.1533,0.1657,0.1573,0.1256,0.0898,0.0396,0.0148,0.0035,0.0014,-0.0064,-0.009,0.0142,0.0122,0.0086,0.0086,0.0086,0.0086,0.0087,0.0087,0.0523,0.0606,0.0653,0.0813,0.09,0.105,0.1156,0.1334,0.147,0.1641,0.1683,0.1692,0.1452,0.0614,0.0063,-0.0064,-0.0229,-0.0269,-0.0336,-0.0195,-0.0182,-0.0169,-0.0201,-0.0303,-0.0304,-0.0554,-0.0556,-0.0558]}],[{"header":{"parameterUnit":"m.s-1","parameterCategory":2,"la1":30.2991,"la2":30.254,"lo1":-89.0895,"lo2":-89.0444,"dy":0.0017,"dx":0.0017,"nx":28,"ny":28,"refTime":"2025-03-11T03:00:00:Z","depth":"2","parameterNumber":2,"parameterNumberName":"U-component_of_CURRENTS"},"data":[0,0,0,0,0,0,0,0,0,0,0,0,0,0,0,0,0,0,0,0,0,0,0,0,0,0,0,0,0,0,0,0,0,0,0,0,0,0,0,0,0,0,0,0,0,0,0,0,0,0,0,0,0,0,0,0,0,0,0.2051,0.2051,0,0.2093,0.2094,0.2095,0.2131,0.213,0.213,0.213,0.2119,0.2119,0.2119,0,0,0,0,0,0,0,0,0,0,0,0,0,0.2068,0.2067,0.2051,0.2051,0.2051,0.2093,0.2094,0.2095,0.2131,0.213,0.213,0.213,0.2119,0.2119,0.2119,0,0,0,0,0,0,0,0,0,0,0,0,0,0.2086,0.2067,0.2051,0.2069,0.207,0.2093,0.2094,0.2096,0.2131,0.213,0.213,0.213,0.2119,0.2119,0.2119,0.2124,0,0,0.2119,0.2119,0,0,0,0,0,0,0,0,0.2085,0.2086,0.2066,0.2068,0.2069,0.2101,0.2096,0.21,0.2131,0.2114,0.213,0.213,0.2104,0.2106,0.2124,0.2123,0.2123,0.2119,0.2119,0.2118,0.2118,0,0,0,0,0,0,0,0.2083,0.2085,0.2074,0.2066,0.2068,0.2098,0.21,0.2098,0.2114,0.2116,0.2117,0.2112,0.2106,0.2124,0.2123,0.2122,0.2119,0.2118,0.2118,0.2118,0.2146,0.2147,0,0,0,0,0,0,0.2063,0.2083,0.2072,0.2074,0.207,0.2097,0.21,0.2096,0.2115,0.2117,0.2112,0.2113,0.2124,0.2124,0.2123,0.2135,0.2118,0.2118,0.2118,0.2145,0.2146,0.2147,0,0,0,0,0,0,0.2063,0.2061,0.207,0.2075,0.2077,0.2096,0.2092,0.2097,0.213,0.2112,0.2114,0.214,0.2124,0.2123,0.2133,0.2134,0.2118,0.2118,0.2144,0.2146,0.2147,0.2154,0,0,0,0,0,0,0.2063,0.2061,0.2063,0.2073,0.2076,0.208,0.2092,0.2098,0.2123,0.2126,0.2136,0.2134,0.2124,0.2134,0.2133,0.2133,0.2118,0.2143,0.2145,0.2147,0.2153,0.2155,0.2158,0,0,0,0,0,0.2064,0.2054,0.2063,0.2062,0.2074,0.2079,0.2085,0.2101,0.2124,0.2133,0.2149,0.2135,0.2143,0.2134,0.2133,0.2134,0.2143,0.2145,0.2146,0.2152,0.2155,0.2158,0,0,0,0,0,0,0.2052,0.2057,0.2067,0.2057,0.2068,0.2083,0.2095,0.2114,0.2139,0.2146,0.2146,0.2145,0.2154,0.215,0.214,0.2149,0.2141,0.2142,0.2145,0.2148,0.215,0.2152,0.2118,0,0,0,0,0,0.2051,0.2053,0.206,0.2053,0.2064,0.209,0.2101,0.211,0.2125,0.2138,0.2143,0.2152,0.2161,0.2159,0.2161,0.2166,0.2188,0.2167,0.217,0.2172,0.2174,0.2226,0.2233,0.2154,0.2154,0.2154,0,0,0.2045,0.2046,0.2048,0.2053,0.2072,0.2084,0.2099,0.2111,0.2121,0.213,0.2152,0.2161,0.2167,0.2172,0.2175,0.2166,0.2206,0.2174,0.2175,0.2177,0.2229,0.2236,0.2243,0.2155,0.2155,0.2154,0,0,0.2033,0.2039,0.2046,0.2058,0.2073,0.2083,0.2091,0.2113,0.2128,0.2147,0.2158,0.2174,0.2184,0.2185,0.2189,0.221,0.2222,0.2211,0.2216,0.2267,0.2274,0.228,0.2318,0.2328,0.2206,0.2206,0.2206,0,0.203,0.2031,0.2047,0.2058,0.2068,0.2087,0.21,0.2114,0.2132,0.2151,0.215,0.2198,0.2191,0.2213,0.2213,0.2213,0.2246,0.2201,0.227,0.2277,0.2283,0.2321,0.2331,0.2207,0.2207,0.2207,0.2207,0,0.2026,0.2034,0.2039,0.2062,0.2076,0.2082,0.21,0.2119,0.2143,0.216,0.2196,0.22,0.2233,0.2226,0.2221,0.226,0.227,0.2271,0.226,0.2292,0.2329,0.234,0.2208,0.2208,0.2207,0.2207,0,0,0.2006,0.2033,0.2037,0.2051,0.2078,0.2084,0.211,0.2138,0.2169,0.2186,0.2232,0.2236,0.2258,0.2265,0.2265,0.2289,0.2349,0.2295,0.2298,0.233,0.2464,0.2387,0.2392,0.2371,0.2372,0.2374,0.2472,0,0.2005,0.2018,0.2034,0.2053,0.2068,0.2097,0.2118,0.2147,0.2181,0.2224,0.2247,0.2284,0.2267,0.2288,0.2314,0.235,0.2379,0.2322,0.2432,0.2435,0.236,0.2402,0.2188,0.2251,0.2483,0.2485,0.2486,0,0.2,0.2012,0.203,0.2058,0.207,0.2082,0.2136,0.2155,0.2219,0.2252,0.2304,0.2334,0.2378,0.2358,0.2444,0.2416,0.244,0.2457,0.2462,0.2394,0.2378,0.2258,0.2262,0.2504,0.2503,0.2502,0.25,0,0.1983,0.2006,0.2017,0.2028,0.2065,0.2086,0.2109,0.2169,0.2208,0.2279,0.2335,0.2389,0.244,0.2484,0.2521,0.2499,0.2614,0.2594,0.2547,0.2542,0.2381,0.2358,0.2653,0.2653,0.2653,0.2653,0.2653,0,0.1968,0.1978,0.2009,0.2018,0.2039,0.2074,0.2117,0.2153,0.2232,0.2289,0.235,0.2408,0.2479,0.255,0.2562,0.2594,0.266,0.2557,0.2565,0.2376,0.2353,0.2586,0.2577,0.2656,0.2656,0.2655,0.2654,0,0.1942,0.1963,0.1979,0.2019,0.2032,0.2049,0.2119,0.2155,0.2236,0.2323,0.2355,0.246,0.2544,0.2603,0.268,0.2651,0.2679,0.2669,0.2434,0.2411,0.2562,0.2553,0.2632,0.2631,0.2629,0.2628,0.2627,0,0.1924,0.1929,0.1974,0.1986,0.2003,0.2039,0.2069,0.2145,0.2196,0.2342,0.2382,0.2499,0.2548,0.2636,0.2603,0.2621,0.2677,0.2424,0.2325,0.2561,0.2563,0.2555,0.2548,0.2123,0.2118,0.2114,0.2111,0,0.1895,0.1915,0.1934,0.1962,0.1989,0.2012,0.2065,0.2096,0.22,0.2271,0.2353,0.2403,0.2494,0.2396,0.2423,0.2398,0.2399,0.2337,0.2672,0.2151,0.2086,0.2086,0.2095,0.2074,0.2077,0.208,0.2082,0.2084,0.1878,0.1875,0.1908,0.1928,0.1954,0.1958,0.1951,0.201,0.2053,0.2125,0.2234,0.224,0.2261,0.2177,0.2108,0.2048,0.2212,0.2098,0.2109,0.2125,0.2038,0.1973,0.1923,0.1926,0.1928,0.193,0.1932,0,0.1842,0.1852,0.1867,0.1879,0.1871,0.1914,0.1929,0.1892,0.1886,0.1976,0.202,0.186,0.1794,0.1824,0.1666,0.1649,0.1618,0.1583,0.1521,0.156,0.1594,0.1478,0.1215,0.1213,0.1211,0.1209,0,0,0.1833,0.1823,0.1823,0.1795,0.1799,0.1747,0.1725,0.1678,0.1688,0.1649,0.164,0.1771,0.1797,0.1503,0.1445,0.1304,0.1427,0.1253,0.1832,0.1801,0.1833,0.1898,0.1764,0,0,0,0,0]},{"header":{"parameterUnit":"m.s-1","parameterCategory":2,"la1":30.2991,"la2":30.254,"lo1":-89.0895,"lo2":-89.0444,"dy":0.0017,"dx":0.0017,"nx":28,"ny":28,"refTime":"2025-03-11T03:00:00:Z","depth":"2","parameterNumber":3,"parameterNumberName":"V-component_of_CURRENTS"},"data":[0,0,0,0,0,0,0,0,0,0,0,0,0,0,0,0,0,0,0,0,0,0,0,0,0,0,0,0,0,0,0,0,0,0,0,0,0,0,0,0,0,0,0,0,0,0,0,0,0,0,0,0,0,0,0,0,0,0,0.0289,0.0288,0,0.0251,0.0251,0.025,0.0218,0.0217,0.0217,0.0217,0.0165,0.0163,0.0162,0,0,0,0,0,0,0,0,0,0,0,0,0,0.0271,0.0272,0.0289,0.0288,0.0288,0.0251,0.0251,0.025,0.0218,0.0217,0.0217,0.0217,0.0165,0.0163,0.0162,0,0,0,0,0,0,0,0,0,0,0,0,0,0.0259,0.0272,0.0289,0.027,0.0268,0.0251,0.025,0.025,0.0218,0.0217,0.0217,0.0217,0.0165,0.0164,0.0162,0.0154,0,0,0.0156,0.0155,0,0,0,0,0,0,0,0,0.0259,0.0259,0.0273,0.0271,0.0269,0.0241,0.0225,0.0218,0.0218,0.0234,0.0217,0.0217,0.0191,0.0187,0.0177,0.0151,0.0149,0.0156,0.0155,0.0154,0.0153,0,0,0,0,0,0,0,0.026,0.026,0.0271,0.0272,0.027,0.0242,0.024,0.0223,0.0212,0.0233,0.0231,0.0231,0.0189,0.0178,0.0175,0.0148,0.0156,0.0154,0.0153,0.0152,0.0106,0.0106,0,0,0,0,0,0,0.0274,0.0261,0.0273,0.027,0.0266,0.0243,0.0241,0.0248,0.0212,0.0207,0.0231,0.0229,0.0182,0.0177,0.0173,0.0167,0.0154,0.0152,0.0151,0.0106,0.0106,0.0106,0,0,0,0,0,0,0.0274,0.0275,0.0274,0.0266,0.0265,0.0244,0.0252,0.0248,0.0238,0.0211,0.0206,0.0226,0.0181,0.0176,0.016,0.0164,0.0151,0.0149,0.0106,0.0106,0.0106,0.0151,0,0,0,0,0,0,0.0273,0.0276,0.0281,0.0268,0.0266,0.0273,0.0252,0.0247,0.0239,0.0237,0.0206,0.02,0.0181,0.0163,0.0158,0.0161,0.0148,0.0106,0.0106,0.0106,0.015,0.0152,0.0155,0,0,0,0,0,0.0273,0.0287,0.0282,0.0283,0.0276,0.0273,0.027,0.0252,0.0239,0.024,0.0216,0.0201,0.0158,0.0161,0.0156,0.0159,0.0106,0.0106,0.0106,0.0148,0.0152,0.0155,0,0,0,0,0,0,0.028,0.0285,0.0279,0.0293,0.0286,0.0269,0.0267,0.0255,0.0236,0.0231,0.0202,0.0195,0.0182,0.0163,0.0167,0.0143,0.0129,0.0127,0.0163,0.0166,0.0169,0.0187,0.0146,0,0,0,0,0,0.0286,0.0298,0.0294,0.0304,0.0302,0.0283,0.0278,0.0269,0.0253,0.0244,0.0223,0.0198,0.0176,0.0166,0.0146,0.0135,0.0121,0.0132,0.0134,0.0137,0.0146,0.0128,0.013,0.0105,0.0105,0.0105,0,0,0.029,0.0295,0.03,0.0306,0.0296,0.03,0.0279,0.0278,0.0279,0.0242,0.0233,0.0208,0.0175,0.0163,0.0155,0.0148,0.0135,0.0137,0.0139,0.0147,0.0128,0.013,0.0133,0.0105,0.0105,0.0105,0,0,0.0308,0.031,0.0326,0.0325,0.0322,0.0313,0.0315,0.0302,0.0293,0.0284,0.0255,0.0234,0.0204,0.0183,0.0167,0.0172,0.015,0.0162,0.0191,0.0173,0.0175,0.0177,0.0161,0.0161,0.0164,0.0164,0.0164,0,0.0311,0.0334,0.0328,0.0341,0.0343,0.0322,0.0334,0.0323,0.0307,0.0304,0.0288,0.0245,0.0215,0.02,0.0197,0.0179,0.0167,0.0184,0.0178,0.0179,0.018,0.0164,0.0163,0.0166,0.0166,0.0165,0.0165,0,0.0341,0.0355,0.0363,0.0375,0.0376,0.0383,0.0373,0.037,0.0355,0.0344,0.0329,0.0288,0.0265,0.0247,0.0222,0.0214,0.0202,0.0185,0.0175,0.0186,0.0167,0.0166,0.0169,0.0168,0.0167,0.0167,0,0,0.0355,0.0381,0.0383,0.0397,0.0395,0.0403,0.0405,0.0406,0.0417,0.0388,0.0398,0.0347,0.0328,0.0309,0.0274,0.0253,0.0242,0.0226,0.0224,0.022,0.0207,0.018,0.0176,0.0226,0.0226,0.0226,0.0191,0,0.0377,0.0416,0.0419,0.0448,0.0465,0.0451,0.0461,0.0458,0.0448,0.0453,0.041,0.0403,0.0351,0.0344,0.0314,0.0265,0.0241,0.0254,0.0189,0.0187,0.0169,0.0175,0.0191,0.016,0.019,0.0189,0.0189,0,0.0404,0.0429,0.0465,0.0497,0.0503,0.0515,0.0532,0.0542,0.0536,0.0531,0.0511,0.0479,0.0445,0.0401,0.0324,0.0336,0.0276,0.0233,0.023,0.0191,0.0159,0.0151,0.0156,0.0187,0.0187,0.0187,0.0187,0,0.0425,0.0462,0.0495,0.0503,0.0532,0.0546,0.0561,0.0565,0.0592,0.0586,0.0606,0.0548,0.0538,0.0454,0.0354,0.0343,0.0273,0.0244,0.0163,0.016,0.0154,0.0151,0.019,0.019,0.019,0.019,0.019,0,0.0451,0.0479,0.0511,0.053,0.0577,0.0583,0.0634,0.0637,0.0665,0.0716,0.0655,0.0675,0.0552,0.0493,0.0386,0.0275,0.0294,0.0173,0.0151,0.0169,0.0168,0.0174,0.0173,0.0188,0.0189,0.0189,0.0189,0,0.0471,0.0489,0.0534,0.0573,0.059,0.0626,0.0692,0.0737,0.0751,0.0817,0.0823,0.0778,0.0702,0.057,0.0439,0.0329,0.0216,0.0169,0.0198,0.0179,0.0107,0.0109,0.0079,0.0078,0.0077,0.0076,0.0075,0,0.0486,0.0511,0.0568,0.0606,0.0627,0.0687,0.0739,0.0774,0.0836,0.0886,0.0929,0.087,0.0839,0.063,0.0431,0.0243,0.0214,0.0124,0.0096,0.0116,0.0097,0.01,0.0102,0.0106,0.0105,0.0105,0.0105,0,0.0516,0.0533,0.0573,0.0653,0.0713,0.079,0.0869,0.0929,0.0992,0.1038,0.1085,0.1059,0.0872,0.0677,0.0412,0.0279,0.0152,0.011,0.0132,0.0128,0.0137,0.012,0.0122,0.0102,0.0102,0.0102,0.0103,0.0103,0.0538,0.0573,0.0631,0.0709,0.0784,0.0887,0.0961,0.1049,0.1141,0.1219,0.1192,0.1152,0.0941,0.0594,0.0374,0.0134,0.0141,0.0047,0.005,0.0053,0.0059,0.0065,0.0018,0.0018,0.0018,0.0018,0.0018,0,0.0571,0.0618,0.0689,0.0786,0.0876,0.0914,0.1048,0.1118,0.1225,0.1277,0.1298,0.1081,0.087,0.0626,0.0278,0.0068,0.0055,-0.0006,0.0031,0.0035,0.0038,0.0045,-0.0,-0.0001,-0.0002,-0.0002,0,0,0.059,0.0661,0.07,0.0848,0.0924,0.1047,0.1126,0.1213,0.1271,0.1302,0.1275,0.1227,0.0935,0.0681,0.0402,0.0205,0.0165,0.0158,0.0193,0.0275,0.0281,0.0088,0.0105,0,0,0,0,0]}],[{"header":{"parameterUnit":"m.s-1","parameterCategory":2,"la1":30.2991,"la2":30.254,"lo1":-89.0895,"lo2":-89.0444,"dy":0.0017,"dx":0.0017,"nx":28,"ny":28,"refTime":"2025-03-11T03:00:00:Z","depth":"4","parameterNumber":2,"parameterNumberName":"U-component_of_CURRENTS"},"data":[0,0,0,0,0,0,0,0,0,0,0,0,0,0,0,0,0,0,0,0,0,0,0,0,0,0,0,0,0,0,0,0,0,0,0,0,0,0,0,0,0,0,0,0,0,0,0,0,0,0,0,0,0,0,0,0,0,0,0.1175,0.1176,0,0.1223,0.1223,0.1223,0.1249,0.1249,0.125,0.125,0.132,0.1322,0.1323,0,0,0,0,0,0,0,0,0,0,0,0,0,0.1119,0.1119,0.1175,0.1176,0.1177,0.1223,0.1223,0.1223,0.1249,0.1249,0.125,0.125,0.132,0.1321,0.1323,0,0,0,0,0,0,0,0,0,0,0,0,0,0.1149,0.112,0.1175,0.1198,0.1201,0.1223,0.1223,0.1223,0.1249,0.1249,0.125,0.125,0.1319,0.1321,0.1323,0.1326,0,0,0.133,0.1331,0,0,0,0,0,0,0,0,0.1147,0.1151,0.1194,0.1196,0.12,0.1234,0.1229,0.126,0.1249,0.1227,0.125,0.1251,0.1295,0.13,0.1302,0.1329,0.1332,0.1331,0.1332,0.1333,0.1334,0,0,0,0,0,0,0,0.1145,0.1149,0.119,0.1195,0.1198,0.1211,0.1215,0.1235,0.1255,0.1229,0.1231,0.1242,0.1297,0.1299,0.1304,0.1333,0.133,0.1332,0.1334,0.1335,0.1439,0.1441,0,0,0,0,0,0,0.1145,0.1147,0.1189,0.1192,0.1179,0.1211,0.1216,0.1219,0.1254,0.1261,0.1242,0.1243,0.1295,0.1301,0.1306,0.138,0.1333,0.1335,0.1336,0.1438,0.144,0.1441,0,0,0,0,0,0,0.1144,0.1148,0.1187,0.1174,0.118,0.1212,0.1215,0.122,0.1248,0.1265,0.1271,0.1268,0.1296,0.1303,0.1349,0.138,0.1336,0.1338,0.1436,0.1438,0.144,0.1484,0,0,0,0,0,0,0.1142,0.1147,0.1161,0.1174,0.1181,0.1214,0.1215,0.1221,0.1254,0.1257,0.1289,0.1295,0.1297,0.1346,0.1351,0.1383,0.134,0.1434,0.1437,0.144,0.148,0.1487,0.1492,0,0,0,0,0,0.1139,0.1151,0.1161,0.1167,0.1195,0.1215,0.122,0.1242,0.1255,0.1269,0.1297,0.1295,0.1366,0.1349,0.1355,0.1388,0.1433,0.1436,0.1439,0.1478,0.1486,0.1492,0,0,0,0,0,0,0.1135,0.1156,0.1167,0.1185,0.1207,0.1221,0.1243,0.1257,0.1288,0.1303,0.1313,0.132,0.1372,0.1375,0.1355,0.1426,0.14,0.1404,0.1427,0.1434,0.144,0.1432,0.1342,0,0,0,0,0,0.114,0.1156,0.1176,0.1195,0.1209,0.1231,0.1248,0.1264,0.1289,0.1305,0.1328,0.1357,0.1385,0.1406,0.1428,0.1468,0.1469,0.1493,0.15,0.1505,0.1503,0.1538,0.1547,0.1452,0.1452,0.1452,0,0,0.1143,0.116,0.1169,0.1196,0.1216,0.124,0.1242,0.1277,0.1304,0.1308,0.136,0.1382,0.1401,0.1445,0.1469,0.1455,0.1534,0.1509,0.1513,0.1509,0.1542,0.1551,0.1559,0.1454,0.1453,0.1453,0,0,0.1153,0.1174,0.119,0.1213,0.1252,0.1265,0.1282,0.1313,0.1336,0.1385,0.1396,0.1436,0.1483,0.1497,0.1511,0.1565,0.1565,0.158,0.1607,0.1641,0.1649,0.1656,0.1671,0.1679,0.1584,0.1584,0.1584,0,0.1161,0.1181,0.12,0.1225,0.1251,0.128,0.1307,0.1332,0.1377,0.1403,0.1412,0.1488,0.1505,0.1552,0.1571,0.1579,0.1593,0.1576,0.1648,0.1655,0.1661,0.1676,0.1684,0.1586,0.1586,0.1586,0.1585,0,0.1175,0.1206,0.1221,0.126,0.1288,0.132,0.1356,0.1394,0.1432,0.1457,0.1523,0.1547,0.1592,0.1606,0.1606,0.1662,0.1657,0.1651,0.1627,0.1673,0.1686,0.1693,0.159,0.1589,0.1588,0.1587,0,0,0.1154,0.1218,0.1227,0.1256,0.1313,0.1334,0.1389,0.1439,0.1479,0.1531,0.1581,0.1632,0.1652,0.1668,0.1679,0.1704,0.176,0.1701,0.1701,0.1711,0.1832,0.1702,0.1698,0.1774,0.1776,0.1777,0.1823,0,0.1163,0.1215,0.1246,0.1301,0.1331,0.138,0.1422,0.1476,0.1527,0.1581,0.1621,0.1673,0.1674,0.1705,0.1734,0.1756,0.1783,0.1747,0.179,0.179,0.1665,0.1703,0.1782,0.1828,0.183,0.1831,0.1832,0,0.1163,0.1202,0.1261,0.1327,0.1345,0.1385,0.1465,0.1508,0.1585,0.1625,0.1688,0.172,0.1777,0.1765,0.1833,0.1816,0.183,0.1837,0.184,0.1705,0.1674,0.1772,0.1846,0.1845,0.1844,0.1843,0.1842,0,0.1136,0.1207,0.1258,0.1283,0.1363,0.1407,0.1452,0.1531,0.1575,0.1661,0.1707,0.1772,0.1822,0.1853,0.1882,0.1871,0.194,0.1925,0.1819,0.1811,0.1894,0.1886,0.1968,0.1968,0.1968,0.1968,0.1968,0,0.1124,0.1164,0.1255,0.1285,0.1341,0.1404,0.1472,0.1524,0.1609,0.1655,0.1733,0.1777,0.1852,0.19,0.1905,0.1883,0.1968,0.1823,0.1814,0.1912,0.1905,0.19,0.1891,0.197,0.1969,0.1969,0.1969,0,0.1083,0.1146,0.1205,0.1301,0.1334,0.1377,0.1477,0.1512,0.1609,0.1675,0.1708,0.181,0.1864,0.1913,0.1964,0.1906,0.1897,0.1869,0.197,0.1966,0.1738,0.1731,0.1746,0.1742,0.1738,0.1735,0.1733,0,0.1065,0.1096,0.1206,0.1236,0.1285,0.136,0.1397,0.1499,0.1537,0.1675,0.169,0.1793,0.1842,0.1815,0.187,0.1866,0.1844,0.182,0.1769,0.1725,0.1716,0.1715,0.1713,0.1727,0.1726,0.1725,0.1724,0,0.1024,0.1077,0.1123,0.1188,0.124,0.1283,0.1353,0.1377,0.1485,0.1593,0.1633,0.1658,0.1714,0.1738,0.1751,0.1743,0.1819,0.1782,0.1789,0.1741,0.1703,0.1697,0.1699,0.1712,0.1714,0.1715,0.1716,0,0.0992,0.1007,0.1074,0.1117,0.1172,0.1183,0.1235,0.1278,0.1335,0.1488,0.1498,0.1601,0.1702,0.1676,0.1686,0.1668,0.1635,0.1564,0.1582,0.1596,0.1522,0.1451,0.1374,0,0,0,0,0,0.0952,0.0956,0.0989,0.1025,0.1069,0.1105,0.1186,0.1239,0.1358,0.1345,0.142,0.146,0.1481,0.1536,0.1486,0.1608,0.1636,0.1539,0.1562,0.1644,0.1658,0.1583,0,0,0,0,0,0,0.0924,0.0953,0.096,0.0936,0.0941,0.0975,0.1026,0.1106,0.1111,0.1242,0.1268,0.1359,0.1409,0.1497,0.1456,0.1469,0.1447,0.1604,0.16,0.1636,0.1649,0.166,0.1588,0,0,0,0,0]},{"header":{"parameterUnit":"m.s-1","parameterCategory":2,"la1":30.2991,"la2":30.254,"lo1":-89.0895,"lo2":-89.0444,"dy":0.0017,"dx":0.0017,"nx":28,"ny":28,"refTime":"2025-03-11T03:00:00:Z","depth":"4","parameterNumber":3,"parameterNumberName":"V-component_of_CURRENTS"},"data":[0,0,0,0,0,0,0,0,0,0,0,0,0,0,0,0,0,0,0,0,0,0,0,0,0,0,0,0,0,0,0,0,0,0,0,0,0,0,0,0,0,0,0,0,0,0,0,0,0,0,0,0,0,0,0,0,0,0,0.0283,0.0283,0,0.0273,0.0273,0.0273,0.0267,0.0267,0.0267,0.0267,0.0237,0.0236,0.0235,0,0,0,0,0,0,0,0,0,0,0,0,0,0.0265,0.0266,0.0283,0.0283,0.0282,0.0273,0.0273,0.0273,0.0267,0.0267,0.0267,0.0267,0.0237,0.0236,0.0235,0,0,0,0,0,0,0,0,0,0,0,0,0,0.0266,0.0266,0.0283,0.0279,0.0278,0.0273,0.0273,0.0273,0.0267,0.0267,0.0267,0.0267,0.0237,0.0236,0.0235,0.0228,0,0,0.0231,0.0231,0,0,0,0,0,0,0,0,0.0266,0.0267,0.0279,0.0279,0.0278,0.0271,0.0256,0.0257,0.0267,0.0271,0.0267,0.0267,0.0246,0.0244,0.0243,0.0226,0.0225,0.0231,0.023,0.023,0.023,0,0,0,0,0,0,0,0.0266,0.0267,0.0279,0.0279,0.0279,0.0267,0.0267,0.0256,0.0258,0.0271,0.027,0.027,0.0246,0.0244,0.0242,0.0225,0.0231,0.023,0.0229,0.0229,0.019,0.019,0,0,0,0,0,0,0.0269,0.0267,0.0279,0.0278,0.0272,0.0267,0.0267,0.0274,0.0259,0.0257,0.027,0.0269,0.0246,0.0243,0.0241,0.0232,0.023,0.0229,0.0228,0.019,0.019,0.019,0,0,0,0,0,0,0.0269,0.0271,0.0279,0.0272,0.0272,0.0268,0.0274,0.0273,0.0276,0.0258,0.0256,0.0273,0.0246,0.0243,0.0233,0.0231,0.0228,0.0227,0.0191,0.019,0.019,0.0214,0,0,0,0,0,0,0.0269,0.0271,0.0278,0.0273,0.0273,0.028,0.0274,0.0273,0.0275,0.0275,0.0261,0.0258,0.0246,0.0235,0.0232,0.0229,0.0226,0.0191,0.019,0.019,0.0213,0.0214,0.0215,0,0,0,0,0,0.0268,0.0277,0.0278,0.028,0.0283,0.028,0.0279,0.0275,0.0275,0.0277,0.0267,0.0258,0.0229,0.0234,0.023,0.0227,0.0191,0.0191,0.019,0.0213,0.0214,0.0215,0,0,0,0,0,0,0.027,0.0278,0.0279,0.0289,0.0287,0.0279,0.0282,0.0279,0.0274,0.0274,0.0258,0.0255,0.0244,0.0231,0.0238,0.0213,0.0207,0.0206,0.0225,0.0226,0.0227,0.0235,0.0225,0,0,0,0,0,0.0275,0.0287,0.0286,0.0294,0.0294,0.029,0.0289,0.0287,0.028,0.0278,0.0268,0.0253,0.0237,0.023,0.0215,0.0205,0.0189,0.0198,0.0199,0.02,0.0203,0.0178,0.0178,0.0187,0.0187,0.0187,0,0,0.0277,0.0283,0.0289,0.0295,0.0294,0.0296,0.0289,0.0291,0.0292,0.0275,0.0274,0.0258,0.0235,0.0222,0.0216,0.0213,0.0187,0.0199,0.02,0.0203,0.0178,0.0177,0.0176,0.0187,0.0187,0.0187,0,0,0.0284,0.0293,0.0304,0.0305,0.0307,0.0304,0.0306,0.0303,0.0301,0.0297,0.0281,0.0265,0.0247,0.0228,0.0216,0.0211,0.0192,0.0205,0.0216,0.0192,0.0191,0.019,0.0164,0.016,0.0205,0.0205,0.0205,0,0.0285,0.0301,0.0305,0.0313,0.0315,0.0309,0.0316,0.0312,0.0305,0.0304,0.0299,0.0268,0.0248,0.0227,0.0224,0.0213,0.0197,0.0217,0.0194,0.0192,0.0191,0.0164,0.016,0.0206,0.0206,0.0205,0.0205,0,0.0299,0.0311,0.0316,0.0328,0.033,0.0334,0.033,0.0331,0.0328,0.0322,0.0308,0.0282,0.0264,0.025,0.0235,0.0215,0.0205,0.0199,0.0195,0.0192,0.0163,0.0159,0.0207,0.0207,0.0207,0.0206,0,0,0.03,0.0323,0.0325,0.0337,0.0339,0.0344,0.0345,0.0345,0.0351,0.0335,0.0335,0.0299,0.029,0.0274,0.0251,0.0226,0.0198,0.0212,0.021,0.0191,0.0144,0.0128,0.0122,0.0191,0.019,0.019,0.0126,0,0.0308,0.0332,0.0338,0.0357,0.0368,0.0365,0.0371,0.0369,0.0365,0.0364,0.0331,0.0324,0.0297,0.0292,0.0262,0.0218,0.0188,0.0215,0.0144,0.0142,0.0134,0.0116,0.0188,0.0123,0.0122,0.0121,0.012,0,0.0318,0.0335,0.0358,0.0383,0.0388,0.0397,0.041,0.0416,0.0407,0.0404,0.0386,0.0365,0.0327,0.0307,0.0228,0.0249,0.0199,0.016,0.0156,0.0132,0.0118,0.0126,0.0112,0.0113,0.0113,0.0114,0.0114,0,0.0322,0.0348,0.0371,0.0378,0.0401,0.0414,0.0427,0.043,0.0448,0.0434,0.0444,0.0392,0.0378,0.0307,0.0225,0.0229,0.0135,0.0129,0.0064,0.0062,0.0086,0.0088,0.0069,0.0069,0.0069,0.007,0.007,0,0.0329,0.0348,0.038,0.0393,0.0428,0.0437,0.0473,0.0475,0.0491,0.0516,0.0474,0.0473,0.0379,0.0316,0.0233,0.0134,0.0139,0.0062,0.0044,0.0097,0.01,0.0083,0.0085,0.0067,0.0068,0.0068,0.0069,0,0.0332,0.035,0.0383,0.0417,0.0433,0.0461,0.0518,0.0547,0.0554,0.0582,0.0583,0.0536,0.0453,0.0347,0.0227,0.0153,0.0053,0.0014,0.0075,0.0062,-0.0006,-0.0002,-0.0062,-0.0063,-0.0064,-0.0065,-0.0066,0,0.0336,0.0353,0.0404,0.0436,0.0457,0.0507,0.0547,0.0575,0.0612,0.062,0.0636,0.0568,0.0519,0.034,0.0221,0.0052,0.0028,-0.0029,-0.0019,-0.0009,-0.0021,-0.0015,-0.0009,-0.0067,-0.0067,-0.0068,-0.0068,0,0.0346,0.0366,0.0396,0.0463,0.0513,0.0572,0.0631,0.066,0.0693,0.0698,0.0678,0.0583,0.0486,0.0342,0.0208,0.0088,0.0005,-0.0039,-0.0038,-0.0029,-0.0016,-0.0025,-0.0019,-0.0071,-0.0071,-0.007,-0.007,0,0.0357,0.0381,0.0428,0.0487,0.0554,0.0619,0.0648,0.0691,0.0722,0.0727,0.0715,0.0606,0.0543,0.036,0.0237,0.0114,0.0084,0.0042,0.0039,0.0041,0.0086,0.0118,0.0086,0,0,0,0,0,0.0366,0.0398,0.0453,0.0517,0.0585,0.0627,0.0699,0.0726,0.0752,0.0743,0.0732,0.0638,0.0455,0.0379,0.0254,0.0214,0.0058,0.0061,0.0007,-0.0089,-0.0085,-0.0052,0,0,0,0,0,0,0.0373,0.0423,0.045,0.0534,0.0584,0.0663,0.0711,0.073,0.073,0.0732,0.0642,0.0595,0.0423,0.0523,0.0247,0.021,0.0155,-0.0021,-0.0024,-0.0091,-0.0088,-0.0085,-0.0049,0,0,0,0,0]}]]